This demonstration page uses our WeatherBlox Daily Observations layout. Learn more.

Left ArrowRight Arrow

41.86663, -103.66717

Hourly Observations for August 24, 2018

Temp ( °F °C ) Dew Point ( °F °C ) Humidity (%) Winds ( mph kmh ) Pressure ( in mb ) Visibility ( mi km ) Precip ( " mm )
12:53 am 00:53 Clear 53 11.7 50 10 89 89 NW 8 13 29.82 1010 7 11 0.00 0.00
1:53 am 01:53 Clear 53 11.7 50 10 89 89 WNW 8 13 29.81 1010 7 11 0.00 0.00
2:53 am 02:53 Clear 50 10 49 9.4 96 96 WNW 8 13 29.82 1010 7 11 0.00 0.00
3:53 am 03:53 Clear 50 10 48 8.9 93 93 WNW 7 11 29.82 1010 7 11 0.00 0.00
4:53 am 04:53 Clear 47 8.3 47 8.3 100 100 NNW 7 11 29.83 1010 7 11 0.00 0.00
5:53 am 05:53 Clear 48 8.9 47 8.3 96 96 NNW 7 11 29.84 1011 7 11 0.00 0.00
6:53 am 06:53 Sunny with Mist and Fog 49 9.4 47 8.3 93 93 WNW 7 11 29.85 1011 6 10 0.00 0.00
7:53 am 07:53 Hazy 54 12.2 49 9.4 83 83 NNW 7 11 29.87 1012 6 10 0.00 0.00
8:53 am 08:53 Sunny 64 17.8 50 10 60 60 WNW 9 15 29.86 1011 7 11 0.00 0.00
9:53 am 09:53 Sunny 71 21.7 47 8.3 42 42 WNW 12 19 29.85 1011 8 13 0.00 0.00
10:53 am 10:53 Sunny 77 25 48 8.9 36 36 WNW 12 19 29.85 1011 8 13 0.00 0.00
11:53 am 11:53 Sunny 84 28.9 48 8.9 29 29 WNW 12 19 29.82 1010 9 14 0.00 0.00
12:53 pm 12:53 Sunny 87 30.6 43 6.1 21 21 W 10 17 29.80 1009 9 14 0.00 0.00
1:53 pm 13:53 Sunny 90 32.2 40 4.4 17 17 W 8 13 29.77 1008 10 16 0.00 0.00
2:53 pm 14:53 Sunny 91 32.8 40 4.4 17 17 VRB 6 9 29.76 1008 10 16 0.00 0.00
3:53 pm 15:53 Sunny 91 32.8 37 2.8 15 15 WSW 10 17 29.75 1007 10 16 0.00 0.00
4:53 pm 16:53 Sunny 91 32.8 36 2.2 14 14 SW 8 13 29.75 1008 10 16 0.00 0.00
5:53 pm 17:53 Sunny 91 32.8 37 2.8 15 15 W 5 7 29.75 1007 10 16 0.00 0.00
6:53 pm 18:53 Sunny 83 28.3 47 8.3 28 28 S 6 9 29.76 1008 10 16 0.00 0.00
7:53 pm 19:53 Clear 72 22.2 55 12.8 55 55 ESE 6 9 29.77 1008 10 16 0.00 0.00
8:53 pm 20:53 Clear 65 18.3 51 10.6 61 61 E 8 13 29.81 1010 10 16 0.00 0.00
9:53 pm 21:53 Clear 62 16.7 53 11.7 73 73 ENE 6 9 29.83 1010 10 16 0.00 0.00
10:53 pm 22:53 Clear 62 16.7 50 10 65 65 E 9 15 29.82 1010 10 16 0.00 0.00
11:53 pm 23:53 Clear 61 16.1 50 10 67 67 E 7 11 29.82 1010 10 16 0.00 0.00

Powered by AerisWeather